Regional Weather Roundup
Issued by NWS

Home | Current Version | Previous Version | Text Only | Print | Product List | Glossary Off
Versions: 1 2 3 4 5 6 7 8 9 10 11 12 13 14 15 16 17 18 19 20 21 22 23 24 25 26 27 28 29 30 31 32 33 34 35 36 37 38 39 40 41 42 43 44 45 46 47 48 49 50

000
ASUS43 KMKX 061911
RWRWI

WISCONSIN REGIONAL WEATHER ROUNDUP
NATIONAL WEATHER SERVICE MILWAUKEE/SULLIVAN WI
200 PM CDT FRI MAY 06 2016

NOTE: "FAIR" INDICATES FEW OR NO CLOUDS BELOW 12,000 FEET WITH NO
SIGNIFICANT WEATHER AND/OR OBSTRUCTIONS TO VISIBILITY.

WIZ001-002-006>008-014>016-023>028-062000-
NORTHWEST WISCONSIN

CITY           SKY/WX    TMP DP  RH WIND       PRES   REMARKS
SUPERIOR ARPT  MOSUNNY   92  46  20 W16G29    29.65F HX  88
ASHLAND        SUNNY     93  39  15 SW15G28   29.67F HX  89
HAYWARD        SUNNY     88  41  19 SW13G22   29.74F HX  84
SIREN          SUNNY     88  47  24 SW15G22   29.74F HX  85
CUMBERLAND     SUNNY     86  43  22 SW15      29.77F HX  83
RICE LAKE      SUNNY     87  40  19 SW14      29.78F HX  84
CHETEK         SUNNY     86  51  29 SW9G22    29.77F HX  84
LADYSMITH      SUNNY     86  43  21 SW14G21   29.78F HX  83
EAU CLAIRE     SUNNY     88  46  23 W16G22    29.77F HX  85
MENOMONIE      SUNNY     90  46  22 SW16G23   29.78F HX  86
NEW RICHMOND   SUNNY     85  47  26 SW14G20   29.78F HX  82
OSCEOLA        SUNNY     85  50  29 SW14G21   29.79F HX  83
$$

WIZ003>005-009-010-017-018-062000-
NORTH CENTRAL WISCONSIN

CITY           SKY/WX    TMP DP  RH WIND       PRES   REMARKS
MANITOWISH WTR SUNNY     86  35  16 W10G20    29.74F HX  82
ARBOR VITAE    SUNNY     86  30  13 W13G18    29.76F HX  83
WOODRUFF       SUNNY     86  30  13 W13G18    29.76F HX  83
RHINELANDER    SUNNY     88  37  16 W16G23    29.77F HX  84
EAGLE RIVER    SUNNY     87  28  12 W14G24    29.75F HX  83
LAND O LAKES   SUNNY     87  27  11 NW10G17   29.75F HX  83
PHILLIPS       SUNNY     85  41  21 SW9G17    29.76F HX  82
TOMAHAWK       SUNNY     86  35  15 W9G20     29.77F HX  83
MEDFORD        SUNNY     82  47  28 SW13G18   29.79F HX  80
MERRILL        SUNNY     88  43  20 W14G24    29.78F HX  84
$$

WIZ029-030-035-036-043>047-062000-
CENTRAL WISCONSIN

CITY           SKY/WX    TMP DP  RH WIND       PRES   REMARKS
WAUSAU         SUNNY     86  44  23 W14       29.78F HX  83
MOSINEE        SUNNY     84  43  23 W12G20    29.82F HX  82
MARSHFIELD     SUNNY     87  43  21 W17       29.79F HX  84
STEVENS POINT  SUNNY     81  46  29 W7        29.81F HX  80
WAUPACA        SUNNY     86  38  18 W12G18    29.80F HX  83
WAUTOMA        SUNNY     84  45  25 SW5G16    29.82F HX  82
WISC RAPIDS    SUNNY     88  38  17 W13G18    29.81F HX  84
CAMP DOUGLAS   SUNNY     86  48  26 W17G23    29.82F HX  83
$$

WIZ011>013-019>022-031-037>040-048>050-062000-
NORTHEAST WISCONSIN

CITY           SKY/WX    TMP DP  RH WIND       PRES   REMARKS
ANTIGO         MOSUNNY   83  48  29 SW12      29.79F HX  81
SHAWANO        SUNNY     85  45  24 W9        29.78F HX  83
OCONTO         SUNNY     76  49  39 S10       29.77F
STURGEON BAY   SUNNY     66  46  48 S15       29.83F
GREEN BAY      SUNNY     81  48  31 W8        29.79F HX  80
MANITOWOC      SUNNY     64  44  48 MISG      29.83F
APPLETON       MOSUNNY   79  41  25 W13       29.80F
CLINTONVILLE   SUNNY     82  43  24 SW7       29.79F HX  80
OSHKOSH        SUNNY     80  47  31 W8        29.81F
$$

WIZ032>034-041-042-053>061-062000-
SOUTHWEST WISCONSIN

CITY           SKY/WX    TMP DP  RH WIND       PRES   REMARKS
LA CROSSE      SUNNY     90  43  19 W12       29.80F HX  86
SPARTA         SUNNY     86  46  24 W9        29.82F HX  83
VIROQUA        SUNNY     86  41  21 W14G24    29.86F HX  83
BOSCOBEL       SUNNY     87  47  24 VRB7      29.85F HX  84
PRAIRIE DU CHI SUNNY     88  35  15 W14       29.85F HX  84
PLATTEVILLE    SUNNY     81  48  30 SW13G18   29.90F HX  80
$$

WIZ056-057-062-063-064-067-068-062000-
SOUTH CENTRAL WISCONSIN

CITY           SKY/WX    TMP DP  RH WIND       PRES   REMARKS
REEDSBURG      SUNNY     82  50  32 W10G18    29.84F HX  81
BARABOO/DELLS  SUNNY     82  43  24 W6        29.85F HX  80
LONE ROCK      SUNNY     83  47  28 W15G21    29.85F HX  81
MINERAL POINT  SUNNY     81  43  26 W13       29.89F
MADISON        MOSUNNY   81  46  29 W9        29.85F HX  80
MIDDLETON      SUNNY     81  49  31 SW9       29.86F HX  80
WATERTOWN      SUNNY     81  48  31 W7        29.84F HX  80
MONROE         SUNNY     77  45  31 W13G21    29.89F
JANESVILLE     MOSUNNY   82  45  26 W12       29.87F HX  80
$$

WIZ051-052-058>065-066-070>072-062000-
SOUTHEAST WISCONSIN

CITY           SKY/WX    TMP DP  RH WIND       PRES   REMARKS
MILWAUKEE      MOSUNNY   80  46  30 SW9       29.84F
WAUKESHA       MOSUNNY   75  45  33 W8        29.87S
MILWAUKEE/TIMM NOT AVBL
RACINE         SUNNY     72  44  36 S13       29.87F
BURLINGTON     SUNNY     80  44  27 SW6       29.86F
KENOSHA        SUNNY     78  49  35 S14       29.86F
FOND DU LAC    SUNNY     82  45  27 NW8       29.82F HX  80
SHEBOYGAN      SUNNY     76  49  38 SE13      29.82F
WEST BEND      SUNNY     79  43  27 W7        29.83F
JUNEAU         MOSUNNY   80  45  29 W6        29.85F
$$

LSZ147-162-062000-
LAKE SUPERIOR

STATION/POSITION TIME  TEMP    WIND        PRES    WAVE
                       AIR SEA DIR/SP/G            HT/PER
                 (UTC) (F)     (DEG/KT/KT) (MB)    (FT/S)
W MID LAKE BUOY  1850   48 37  200/ 12/ 12 1004.0F   0
DEVILS ISLAND    1900   73     230/ 19/ 22 1003.3F
SAXON HARBOR     1800   89     240/  7/ 23 1005.1
$$

LMZ867-665-643>646-062000-
LAKE MICHIGAN

STATION/POSITION TIME  TEMP    WIND        PRES    WAVE
                       AIR SEA DIR/SP/G            HT/PER
                 (UTC) (F)     (DEG/KT/KT) (MB)    (FT/S)
CHAMBERS ISLAND  1800   69     180/  8/ 12 1009.5F
N MID LAKE BUOY  1850   44 39  180/ 14/ 16 1009.9F   2/ 4
NORTHPORT PIER   1800   51     150/ 11/ 14 1009.8F
SISTER BAY       1819   69     200/ 15/ 19   N/A
ALGOMA LAKESHORE 1815          200/ 15/ 16   N/A
KEWAUNEE LAKESHO 1800   46     170/ 14/ 16 1009.8F
SHEBOYGAN LAKESH 1900   48     160/ 18/ 19 1010.7F
PORT WASHINGTON  1840   56     180/  7/ 11 1011.5F
MILWAUKEE LAKESH 1810   50     140/ 12/ 13   N/A
S MID LAKE BUOY  1850   45 41  150/ 12/ 14 1012.3F   1
KENOSHA   LAKESH 1900   54     170/ 10/ 15 1011.2F
$$

TC  - TEMPERATURE IN CELSIUS
VSB - VISIBILITY IN STATUTE MILES
WCI - WIND CHILL INDEX
HX  - HEAT INDEX





USA.gov is the U.S. government's official web portal to all federal, state and local government web resources and services.